IRIDIUM 20 [-] (25577 NORAD) Tracking and Keplerian Element Data

This shows tracking and keplerian element data for the satellite.

Feedback or suggestion? Click here.




ElementValue
Catalog25577
NameIRIDIUM 20 [-]
Epoch Orbit3919
Epoch Day295.01543525
Epoch Year2018
RAAN48.8472
Inclination86.5903
Eccentricity0.0044454
Argument of Perigee292.7301
Mean Anonmoly67.5424
Mean Motion16.52533789
Decay Rate0.42401386
L11 25577U 98074A 18295.01543525 .42401386 -12154-5 20537-3 0 9991
L22 25577 86.5903 48.8472 0044454 292.7301 67.5424 16.52533789 39196

Live tracking and technical data element details for IRIDIUM 20 [-] (NORAD 25577). IRIDIUM 20 [-] can be tracked NOW for your location showing map with azimuth and elevation plus other details from your city location.

Track the satellite on the map from your city or location and see movement details for azimuth, elevation, latitude, longitude, range, height, and movement on the map or in text.







IsCatalogInMostPopularTable: catalog: 25577, numindb: 50
Update: records affected: 1



GetName: 25577 IRIDIUM 20 [-]

Hit Count: updated at: Sat, 15 Dec 2018 17:50:52 GMT